Stations météo

réclame
Mon MeteoGroup
Redesdale Camp, Grande-Bretagne (3230): Température de l'air & dewpoint: 26.11.2020 03:00:00 - 02.12.2020 03:00:00 (GMT)Redesdale Camp, Grande-Bretagne (3230): Température de l'air -20cm & Température de l'air -100cm: 26.11.2020 03:00:00 - 02.12.2020 03:00:00 (GMT)Redesdale Camp, Grande-Bretagne (3230): Vitesse du vent & gusts: 26.11.2020 03:00:00 - 02.12.2020 03:00:00 (GMT)Redesdale Camp, Grande-Bretagne (3230): Direction du vent: 26.11.2020 03:00:00 - 02.12.2020 03:00:00 (GMT)Redesdale Camp, Grande-Bretagne (3230): reduced air pressure: 26.11.2020 03:00:00 - 02.12.2020 03:00:00 (GMT)Redesdale Camp, Grande-Bretagne (3230): visibility: 26.11.2020 03:00:00 - 02.12.2020 03:00:00 (GMT)Redesdale Camp, Grande-Bretagne (3230): Quantités de précipitations: 26.11.2020 03:00:00 - 02.12.2020 03:00:00 (GMT)
Date & Time tt [°C] td [°C] tt -20cm [°C] tt -100cm [°C] ff [km/h] ff [knt] fx [km/h] fx [knt] dd ppp [hPa] vv [km] rr [mm]
02.12.2020 03:00:00 - - - - - - - - - - - -
02.12.2020 02:00:00 6,3 5,3 - - 5 3 - - W 1020,9 35 0,0
02.12.2020 01:00:00 6,0 5,4 - - 8 4 - - WSW 1021,8 29 0,0
02.12.2020 00:00:00 5,1 4,6 - - 4 2 - - NW 1022,4 35 0,0
01.12.2020 23:00:00 5,3 4,8 - - 4 2 - - WNW 1023,4 45 0,0
01.12.2020 22:00:00 4,7 3,9 - - 4 2 - - E 1024,3 29 0,0
01.12.2020 21:00:00 4,5 3,8 - - 8 4 - - W 1024,9 24 0,0
01.12.2020 20:00:00 3,3 2,6 - - 4 2 - - WNW 1025,4 15 0,0
01.12.2020 19:00:00 1,8 0,7 - - 4 2 - - E 1025,9 35 0,0
01.12.2020 18:00:00 2,3 0,9 - - 4 2 - - S 1025,7 40 0,0
01.12.2020 17:00:00 3,2 1,2 - - 4 2 - - S 1025,8 55 0,0
01.12.2020 16:00:00 4,2 1,5 - - 5 3 - - W 1026,3 65 0,0
01.12.2020 15:00:00 4,9 2,0 - - 5 3 - - S 1026,4 75 0,0
01.12.2020 14:00:00 5,2 1,4 - - 2 1 - - NE 1026,6 60 0,0
01.12.2020 13:00:00 4,9 1,3 - - 2 1 - - S 1027,1 75 0,0
01.12.2020 12:00:00 4,4 1,6 - - 2 1 - - W 1027,5 75 0,0
01.12.2020 11:00:00 3,6 1,4 - - 4 2 - - NNW 1028,0 75 0,0
01.12.2020 10:00:00 2,7 1,1 - - 4 2 - - NNW 1028,1 60 0,0
01.12.2020 09:00:00 0,9 0,3 7,2 8,7 2 1 - - NNW 1028,2 75 0,0
01.12.2020 08:00:00 -0,6 -1,7 - - 4 2 - - N 1028,3 75 0,0
01.12.2020 07:00:00 -0,7 -1,5 - - 2 1 - - ESE 1027,8 75 0,0
01.12.2020 06:00:00 -0,3 -1,4 - - 5 3 - - E 1027,2 75 0,0
01.12.2020 05:00:00 1,8 -0,5 - - 5 3 - - NW 1026,5 75 0,0
01.12.2020 04:00:00 2,0 -0,1 - - 8 4 - - WNW 1026,2 75 0,0
01.12.2020 03:00:00 2,5 0,0 - - 11 6 - - NW 1026,0 75 0,0
01.12.2020 02:00:00 2,3 -0,1 - - 11 6 - - NW 1025,9 75 0,0
01.12.2020 01:00:00 2,5 0,1 - - 11 6 - - NW 1025,6 75 0,0
01.12.2020 00:00:00 2,6 0,1 - - 11 6 - - NW 1025,1 75 0,0
30.11.2020 23:00:00 2,3 -0,1 - - 8 4 - - WNW 1024,7 75 0,0
30.11.2020 22:00:00 3,9 0,3 - - 5 3 - - WNW 1023,9 75 0,0
30.11.2020 21:00:00 4,5 0,5 - - 4 2 - - W 1023,1 75 0,0
30.11.2020 20:00:00 4,6 0,5 - - 11 6 - - NNW 1022,1 75 0,0
30.11.2020 19:00:00 4,1 0,3 - - 11 6 - - NNW 1020,8 75 0,0
30.11.2020 18:00:00 4,6 0,5 - - 13 7 - - NNW 1019,7 75 0,0
30.11.2020 17:00:00 4,9 1,1 - - 16 9 - - NNW 1018,4 75 0,0
30.11.2020 16:00:00 5,9 2,9 - - 16 9 - - NNW 1017,2 75 0,0
30.11.2020 15:00:00 6,5 4,2 - - 22 12 46 25 NNW 1016,0 8 0,4
30.11.2020 14:00:00 9,3 5,5 - - 16 9 46 25 WNW 1014,3 75 0,2
30.11.2020 13:00:00 9,3 8,1 - - 11 6 - - W 1014,3 16 0,0
30.11.2020 12:00:00 8,1 7,3 - - 18 10 - - WSW 1014,5 12 0,0
30.11.2020 11:00:00 7,6 6,9 - - 18 10 - - WSW 1015,1 5 0,0
30.11.2020 10:00:00 7,2 6,6 - - 21 11 - - WSW 1015,9 5 0,0
30.11.2020 09:00:00 7,2 6,0 7,4 8,7 18 10 - - WSW 1016,6 35 0,0
30.11.2020 08:00:00 7,2 6,1 - - 22 12 - - WSW 1017,1 28 0,0
30.11.2020 07:00:00 6,9 5,5 - - 24 13 - - WSW 1018,1 12 0,0
30.11.2020 06:00:00 6,4 4,5 - - 21 11 - - WSW 1018,9 21 0,0
30.11.2020 05:00:00 6,7 5,2 - - 16 9 46 25 WSW 1019,5 14 0,0
30.11.2020 04:00:00 6,8 5,7 - - 11 6 - - W 1020,3 12 0,0
30.11.2020 03:00:00 7,0 5,4 - - 13 7 - - W 1021,2 13 0,0
30.11.2020 02:00:00 6,9 5,5 - - 8 4 - - W 1022,4 18 0,0
30.11.2020 01:00:00 7,7 6,6 - - 4 2 - - SW 1022,5 14 0,0
30.11.2020 00:00:00 7,8 7,1 - - 5 3 - - W 1023,2 11 0,0
29.11.2020 23:00:00 7,6 7,1 - - 8 4 - - WSW 1023,9 12 0,0
29.11.2020 22:00:00 7,4 7,0 - - 11 6 - - WSW 1024,2 8 0,0
29.11.2020 21:00:00 7,3 6,8 - - 4 2 - - WSW 1024,7 10 0,0
29.11.2020 20:00:00 7,3 6,6 - - 4 2 - - NW 1025,1 17 0,0
29.11.2020 19:00:00 7,1 6,5 - - 2 1 - - WSW 1025,3 15 0,0
29.11.2020 18:00:00 7,1 6,6 - - 4 2 - - SW 1025,2 9 0,0
29.11.2020 17:00:00 7,2 6,4 - - 4 2 - - SSW 1025,1 19 0,0
29.11.2020 16:00:00 7,2 6,3 - - 2 1 - - WSW 1025,1 21 0,0
29.11.2020 15:00:00 8,1 7,1 - - 4 2 - - WSW 1024,8 23 0,0
29.11.2020 14:00:00 8,0 7,6 - - 2 1 - - NW 1025,0 23 0,0
29.11.2020 13:00:00 7,8 7,7 - - 0 0 - - N 1025,3 19 0,0
29.11.2020 12:00:00 7,2 7,2 - - 2 1 - - SSE 1025,7 8 0,0
29.11.2020 11:00:00 6,8 6,8 - - 2 1 - - WSW 1025,9 14 0,0
29.11.2020 10:00:00 6,1 6,1 - - 2 1 - - WNW 1025,9 1,2 0,0
29.11.2020 09:00:00 5,7 5,7 7,2 8,9 2 1 - - S 1025,9 0,7 0,0
29.11.2020 08:00:00 5,7 5,7 - - 4 2 - - N 1025,9 0,6 0,0
29.11.2020 07:00:00 5,4 5,4 - - 0 0 - - N 1025,4 0,2 0,0
29.11.2020 06:00:00 5,2 5,2 - - 2 1 - - E 1025,1 0,1 0,0
29.11.2020 05:00:00 5,1 5,0 - - 0 0 - - N 1025,1 0,4 0,2
29.11.2020 04:00:00 5,1 5,1 - - 2 1 - - WSW 1025,3 1,1 0,0
29.11.2020 03:00:00 5,3 5,2 - - 2 1 - - WNW 1025,6 2,3 0,0
29.11.2020 02:00:00 4,9 4,8 - - 4 2 - - W 1025,6 5 0,0
29.11.2020 01:00:00 4,7 4,5 - - 5 3 - - WNW 1025,7 4,3 0,0
29.11.2020 00:00:00 4,5 4,1 - - 5 3 - - W 1025,7 8 0,0
28.11.2020 23:00:00 3,9 3,6 - - 4 2 - - WNW 1025,6 30 0,0
28.11.2020 22:00:00 3,2 2,9 - - 4 2 - - NW 1025,5 28 0,0
28.11.2020 21:00:00 2,7 2,3 - - 4 2 - - NNW 1025,3 25 0,0
28.11.2020 20:00:00 2,9 2,4 - - 2 1 - - W 1025,0 40 0,0
28.11.2020 19:00:00 2,8 2,3 - - 2 1 - - SW 1024,8 45 0,0
28.11.2020 18:00:00 2,8 2,2 - - 4 2 - - N 1024,6 50 0,0
28.11.2020 17:00:00 2,5 1,9 - - 2 1 - - NNE 1024,4 45 0,0
28.11.2020 16:00:00 2,7 2,0 - - 2 1 - - WSW 1024,1 50 0,0
28.11.2020 15:00:00 2,5 1,6 - - 2 1 - - N 1023,5 40 0,0
28.11.2020 14:00:00 2,3 0,8 - - 2 1 - - SW 1022,7 55 0,0
28.11.2020 13:00:00 2,3 0,2 - - 2 1 - - SSW 1022,5 45 0,0
28.11.2020 12:00:00 3,9 0,9 - - 2 1 - - SW 1022,0 75 0,0
28.11.2020 11:00:00 0,8 0,4 - - 4 2 - - W 1022,4 55 0,0
28.11.2020 10:00:00 -1,8 -2,1 - - 9 5 - - N 1022,3 55 0,0
28.11.2020 09:00:00 -2,6 -2,8 7,7 9,0 2 1 - - NW 1021,6 40 0,0
28.11.2020 08:00:00 -3,8 -4,1 - - 4 2 - - W 1021,0 40 0,0
28.11.2020 07:00:00 -4,0 -4,6 - - 4 2 - - NNW 1020,4 65 0,0
28.11.2020 06:00:00 -2,7 -3,0 - - 2 1 - - N 1020,0 50 0,0
28.11.2020 05:00:00 -1,9 -2,2 - - 4 2 - - WNW 1019,3 50 0,0
28.11.2020 04:00:00 -1,8 -2,2 - - 2 1 - - NW 1018,9 55 0,0
28.11.2020 03:00:00 -1,3 -1,9 - - 4 2 - - WNW 1018,9 55 0,0
28.11.2020 02:00:00 0,1 -0,7 - - 5 3 - - NNW 1018,5 55 0,0
28.11.2020 01:00:00 0,2 -0,4 - - 4 2 - - NNE 1018,0 60 0,0
28.11.2020 00:00:00 0,5 -0,3 - - 2 1 - - N 1018,0 55 0,0
27.11.2020 23:00:00 2,1 0,7 - - 5 3 - - N 1018,0 70 0,0
27.11.2020 22:00:00 2,5 1,6 - - 2 1 - - NE 1018,2 55 0,0
27.11.2020 21:00:00 2,9 2,0 - - 5 3 - - N 1018,1 50 0,0
27.11.2020 20:00:00 2,7 2,1 - - 2 1 - - NNW 1018,1 35 0,0
27.11.2020 19:00:00 2,6 2,0 - - 2 1 - - E 1018,2 30 0,0
27.11.2020 18:00:00 3,4 2,5 - - 4 2 - - WNW 1018,1 55 0,0
27.11.2020 17:00:00 3,8 2,7 - - 2 1 - - S 1018,5 50 0,0
27.11.2020 16:00:00 4,2 2,7 - - 2 1 - - SW 1018,4 40 0,0
27.11.2020 15:00:00 4,7 3,2 - - 5 3 - - E 1018,4 50 0,0
27.11.2020 14:00:00 5,0 3,2 - - 8 4 - - SE 1018,5 50 0,0
27.11.2020 13:00:00 5,0 3,3 - - 5 3 - - SE 1018,9 50 0,0
27.11.2020 12:00:00 4,7 3,2 - - 2 1 - - SSE 1019,5 55 0,0
27.11.2020 11:00:00 4,1 2,9 - - 2 1 - - SW 1020,2 65 0,0
27.11.2020 10:00:00 3,6 2,9 - - 2 1 - - NNE 1020,4 45 0,0
27.11.2020 09:00:00 2,9 2,3 7,9 9,0 4 2 - - N 1020,6 55 0,0
27.11.2020 08:00:00 2,7 1,8 - - 4 2 - - WNW 1020,6 70 0,0
27.11.2020 07:00:00 3,2 2,1 - - 2 1 - - NNW 1020,4 70 0,0
27.11.2020 06:00:00 3,6 2,1 - - 2 1 - - NNW 1020,2 75 0,0
27.11.2020 05:00:00 3,7 2,1 - - 2 1 - - WNW 1020,5 75 0,0
27.11.2020 04:00:00 4,1 2,0 - - 4 2 - - WNW 1020,6 75 0,0
27.11.2020 03:00:00 3,9 2,3 - - 4 2 - - NNW 1021,1 70 0,0
27.11.2020 02:00:00 3,8 2,5 - - 4 2 - - N 1021,3 75 0,0
27.11.2020 01:00:00 3,5 2,6 - - 5 3 - - NNE 1021,4 55 0,0
27.11.2020 00:00:00 3,6 3,1 - - 4 2 - - NW 1021,4 45 0,0
26.11.2020 23:00:00 3,1 2,1 - - 4 2 - - WSW 1021,7 55 0,0
26.11.2020 22:00:00 4,7 3,1 - - 4 2 - - WSW 1021,2 75 0,0
26.11.2020 21:00:00 4,7 3,0 - - 2 1 - - NW 1021,1 35 0,0
26.11.2020 20:00:00 4,3 2,8 - - 2 1 - - WSW 1021,1 60 0,0
26.11.2020 19:00:00 4,5 2,7 - - 2 1 - - WNW 1021,1 65 0,0
26.11.2020 18:00:00 4,8 2,7 - - 2 1 - - SW 1021,2 75 0,0
26.11.2020 17:00:00 5,4 2,1 - - 4 2 - - WNW 1020,8 75 0,0
26.11.2020 16:00:00 5,6 2,5 - - 4 2 - - WNW 1020,3 75 0,0
26.11.2020 15:00:00 6,7 2,8 - - 5 3 - - W 1020,0 75 0,0
26.11.2020 14:00:00 8,1 3,4 - - 5 3 - - WSW 1019,9 75 0,0
26.11.2020 13:00:00 7,2 2,8 - - 4 2 - - W 1020,3 75 0,0
26.11.2020 12:00:00 6,9 3,1 - - 2 1 - - WSW 1020,6 75 0,0
26.11.2020 11:00:00 5,9 3,9 - - 4 2 - - W 1020,8 75 0,0
26.11.2020 10:00:00 5,1 4,6 - - 4 2 - - WSW 1020,6 75 0,0
26.11.2020 09:00:00 4,7 4,2 8,0 9,0 2 1 - - NNW 1020,6 75 0,0
26.11.2020 08:00:00 4,4 4,0 - - 4 2 - - E 1020,3 75 0,0
26.11.2020 07:00:00 4,6 4,4 - - 4 2 - - NW 1019,8 75 0,0
26.11.2020 06:00:00 4,0 3,8 - - 2 1 - - NNE 1019,5 75 0,0
26.11.2020 05:00:00 4,5 4,3 - - 4 2 - - NW 1019,0 75 0,0
26.11.2020 04:00:00 3,8 3,6 - - 2 1 - - WSW 1018,8 75 0,0
26.11.2020 03:00:00 3,5 3,3 - - 5 3 - - W 1018,6 70 0,0

tt = Température de l'air
td = dewpoint
tt -20cm = Température de l'air -20cm
tt -100cm = Température de l'air -100cm
ff = Vitesse du vent
fx = gusts
dd = Direction du vent
ppp = reduced air pressure
vv = visibility
rr = Quantités de précipitations

stations d'obs. à proximité